Regional Weather Roundup
Issued by NWS

Home | Current Version | Previous Version | Graphics & Text | Print | Product List | Glossary On
Versions: 1 2 3 4 5 6 7 8 9 10 11 12 13 14 15 16 17 18 19 20 21 22 23 24 25 26 27 28 29 30 31 32 33 34 35 36 37 38 39 40 41 42 43 44 45 46 47 48 49 50
000
ASUS45 KCYS 261510
RWRWY

WYOMING REGIONAL WEATHER ROUNDUP
NATIONAL WEATHER SERVICE CHEYENNE WY
900 AM MDT THU MAR 26 2015

NOTE:  "FAIR" INDICATES FEW OR NO CLOUDS BELOW 12,000 FEET
WITH NO SIGNIFICANT WEATHER AND/OR OBSTRUCTIONS TO VISIBILITY.

WYZ001-261600-
YELLOWSTONE NATIONAL PARK

CITY           SKY/WX    TMP DP  RH WIND       PRES   REMARKS
LK YELLOWSTONE   N/A     27  24  89 E3        30.36S
W YELLOWSTONE  NOT AVBL

$$
WYZ002>013-054>058-071-098>099-261600-
NORTHERN WYOMING

CITY           SKY/WX    TMP DP  RH WIND       PRES   REMARKS
JACKSON        SUNNY     21  18  86 CALM      30.39S
CODY           FAIR      46  25  42 W13G26    30.17F
GREYBULL       CLOUDY    40  24  53 CALM      30.19S
WORLAND        PTSUNNY   39  25  57 SW6       30.20F WCI  35
SHERIDAN       CLOUDY    45  34  65 NW7       30.17S
BUFFALO        CLOUDY    43  33  68 NW20G26   30.16S
GILLETTE       CLOUDY    41  34  76 NW13      30.14F
HULETT         CLOUDY    43  30  61 NW8       30.12S
NEWCASTLE      LGT RAIN  36  34  93 NW8       30.15S WCI  29

$$
WYZ014>020-022>026-101>103-261600-
CENTRAL WYOMING

CITY           SKY/WX    TMP DP  RH WIND       PRES   REMARKS
BIG PINEY      FAIR      26  16  65 S3        30.34S
PINEDALE       PTSUNNY   36  23  60 W24G30    30.31F WCI  24
DUBOIS         FAIR      34  21  60 N16       30.28S WCI  23
LANDER         FAIR      39  23  52 E3        30.20F
RIVERTON       FAIR      46  22  38 NW21G28   30.21F
CASPER         FAIR      40  22  48 SW14      30.20S WCI  32
DOUGLAS        PTSUNNY   41  23  48 NW14      30.19R

$$
WYZ021-027>030-104>119-261600-
SOUTHERN WYOMING

CITY           SKY/WX    TMP DP  RH WIND       PRES   REMARKS
EVANSTON       FAIR      32  22  66 SW9       30.39S WCI  24
FORT BRIDGER   FAIR      38  26  60 W18       30.40S WCI  29
ROCK SPRINGS   FAIR      34  22  61 W23       30.34S WCI  22
DIXON          FAIR      30  22  70 CALM      30.40R
RAWLINS        FAIR      34  19  54 W17G24    30.29R WCI  23
SARATOGA       FAIR      36  19  51 W15G23    30.31S WCI  26
LARAMIE        FAIR      34  18  52 SW17      30.20S WCI  23
CHEYENNE       PTSUNNY   39  18  42 W17       30.18S WCI  30
TORRINGTON     CLOUDY    34  26  72 W3        30.17R
PINE BLUFFS    PTSUNNY   41  23  48 NW18G24   30.18S

$$



USA.gov is the U.S. government's official web portal to all federal, state and local government web resources and services.